Regional Weather Roundup
Issued by NWS

Home | Current Version | Previous Version | Text Only | Print | Product List | Glossary On
Versions: 1 2 3 4 5 6 7 8 9 10 11 12 13 14 15 16 17 18 19 20 21 22 23 24 25 26 27 28 29 30 31 32 33 34 35 36 37 38 39 40 41 42 43 44 45 46 47 48 49 50
000
ASUS44 KBMX 221410
RWRAL

ALABAMA REGIONAL WEATHER ROUNDUP
NATIONAL WEATHER SERVICE BIRMINGHAM AL
900 AM CDT FRI AUG 22 2014

NOTE: "FAIR" INDICATES FEW OR NO CLOUDS BELOW 12,000 FEET
WITH NO SIGNIFICANT WEATHER AND/OR OBSTRUCTIONS TO VISIBILITY.

THE REMARK "TC" DENOTES TEMPERATURE IN DEGREES CELSIUS.

ALZ001>011-014-016>018-020-221500-
NORTH ALABAMA

CITY           SKY/WX    TMP DP  RH WIND       PRES   REMARKS
MUSCLE SHOALS  SUNNY     83  73  72 NW5       30.14S
HUNTSVILLE     MOSUNNY   83  73  72 W6        30.14S
DECATUR        SUNNY     84  74  71 NW8       30.15R HX  91
HALEYVILLE     FAIR      82  74  77 CALM      30.18R
GADSDEN        SUNNY     81  72  74 CALM      30.13S
$$

ALZ012-013-022-023-030>036-040>044-221500-
WEST CENTRAL ALABAMA

CITY           SKY/WX    TMP DP  RH WIND       PRES   REMARKS
TUSCALOOSA     SUNNY     82  72  71 CALM      30.13S
$$

ALZ015-024>027-033>036-040>044-221500-
CENTRAL ALABAMA

CITY           SKY/WX    TMP DP  RH WIND       PRES   REMARKS
BIRMINGHAM     MOSUNNY   83  72  69 NW8       30.17R
MONTGOMERY     SUNNY     85  75  72 W5        30.13R HX  93
SHELBY CO ARPT SUNNY     82  72  71 VRB6      30.15R
MAXWELL AFB    SUNNY     84  77  79 VRB3      30.12R HX  93
GREENVILLE     FAIR      87  75  67 N6        30.12R HX  96
$$

ALZ019-021-028-029-037-038-045>048-221500-
EAST CENTRAL ALABAMA

CITY           SKY/WX    TMP DP  RH WIND       PRES   REMARKS
ANNISTON       SUNNY     81  74  79 SW5       30.14S
ALEXANDER CITY SUNNY     84  73  68 NW5       30.14R HX  91
AUBURN         SUNNY     82  72  69 NW8       30.17R
$$

ALZ051>064-221500-
SOUTHWEST ALABAMA

CITY           SKY/WX    TMP DP  RH WIND       PRES   REMARKS
MOBILE         SUNNY     84  75  74 NW7       30.12S HX  92
BROOKLEY FIELD SUNNY     86  76  71 N7        30.12S HX  96
EVERGREEN      SUNNY     83  75  77 NW5       30.13R HX  90
$$

ALZ049-050-065>069-221500-
SOUTHEAST ALABAMA

CITY           SKY/WX    TMP DP  RH WIND       PRES   REMARKS
DOTHAN         SUNNY     85  75  72 NW8       30.15R HX  93
OZARK          SUNNY     85  75  72 NW7       30.11S HX  93
TROY           SUNNY     86  75  69 NW5       30.13R HX  95
EUFAULA        FAIR      87  74  64 W3        30.11R HX  95
$$


USA.gov is the U.S. government's official web portal to all federal, state and local government web resources and services.